sat.trackr.live / text

‹ back to catalog

BEIDOU-2 IGSO-2 (C07)

NORAD 37256 · 2010-068A

PAYLOAD ACTIVE UNKNOWN

§ Identity

Operator
Country
PRC
Launch date
2010-12-17
Launch site
XICLF
Launch vehicle
Mass (kg)
RCS (m²)
21.58

Purposes: comms, nav

External: N2YO · Heavens-Above · Gunter

§ Orbital elements

Epoch: 2026-09-19T20:08:12.109056Z

Period
1,436.38 min
Inclination
47.3791°
Eccentricity
0.0057416
Mean motion
1.00252131 rev/d
Perigee alt
35,550.0 km
Apogee alt
36,034.2 km
Semi-major
42,170.2 km
B*
0.0000e+0
RAAN
270.6455°
Arg perigee
216.8441°
Mean anomaly
278.7596°
Rev number
5,774

§ Raw data

BEIDOU-2 IGSO-2 (C07)1 37256U 10068A   26262.83902904 -.00000153  00000+0  00000+0 0  99992 37256  47.3791 270.6455 0057416 216.8441 278.7596  1.00252131 57746

JSON: /api/v1/satellites/37256 · /tle

For live sub-satellite position, see the globe view (requires WebGL).

§ Visibility from observer

Set your observer location to see the next 7 days of passes ≥ 10°. The values pass through the URL so the page stays shareable.

No JS? Fill the form by hand. The geolocation button needs JavaScript.